{"data":{"norad_id":50484,"epoch":"2026-05-25T03:17:41.557920Z","epoch_age_seconds":63418,"freshness":"FRESH","line1":"1 50484U 21132R   26145.13728655  .00000003  00000+0 -26994-4 0  9992","line2":"2 50484  87.8909  25.6530 0002043  88.5221 271.6141 13.11414940212678","mean_motion":13.1141494,"eccentricity":0.0002043,"inclination_deg":87.8909,"raan_deg":25.653,"arg_perigee_deg":88.5221,"mean_anomaly_deg":271.6141,"bstar":-2.6994e-5,"rev_number":21267,"period_min":109.80506291929,"perigee_km":1216.1386129054,"apogee_km":1219.2422679976,"semimajor_km":7595.8274404515,"source":"CELESTRAK","updated_at":"2026-05-25T13:38:22.531180Z"}}